Location: Masseube
(43.4298°N, 0.5781°E)
Time: 21:29:54
(UTC+00:00)

NOSS 3-2 (A) - Visible Passes

Search period start: 18 November 2025 00:00
Search period end: 28 November 2025 00:00
Orbit: 666 x 1537 km, 63.4° (Epoch: 06 November)

Date Brightness Start Highest point End Pass type
(mag) Time Alt. Az. Time Alt. Az. Time Alt. Az.
18 Nov 5.8 02:53:10 17° NNE 02:53:28 17° NNE 02:58:17 10° ENE visible
18 Nov 5.0 04:40:31 16° NNW 04:46:12 44° NE 04:54:23 10° ESE visible
19 Nov 6.2 02:08:47 13° NNE 02:08:47 13° NNE 02:10:23 10° NE visible
19 Nov 5.3 03:56:09 22° N 03:59:45 32° NE 04:07:08 10° E visible
19 Nov 4.2 05:43:48 10° NW 05:51:22 82° SW 06:00:22 10° SSE visible
20 Nov 5.5 03:11:50 23° NNE 03:13:10 24° NNE 03:19:34 10° E visible
20 Nov 4.3 04:59:12 17° NNW 05:05:12 72° NE 05:14:06 10° SE visible
21 Nov 5.9 02:27:33 18° NE 02:27:33 18° NE 02:31:46 10° ENE visible
21 Nov 4.7 04:14:55 27° NNW 04:18:57 51° NE 04:27:25 10° ESE visible
21 Nov 4.5 06:02:39 10° NW 06:09:59 48° WSW 06:18:30 10° S visible
22 Nov 6.5 01:43:21 11° NE 01:43:21 11° NE 01:43:50 10° NE visible
22 Nov 5.0 03:30:44 33° NNE 03:32:34 37° NE 03:40:20 10° ESE visible
22 Nov 4.1 05:18:06 19° NW 05:23:58 70° WSW 05:32:55 10° SSE visible
23 Nov 5.5 02:46:37 27° NE 02:46:37 27° NE 02:52:55 10° E visible
23 Nov 4.1 04:33:59 34° NNW 04:37:51 83° NE 04:46:51 10° SE visible
23 Nov 5.2 06:22:05 10° WNW 06:28:22 26° WSW 06:35:23 10° SSW visible
24 Nov 6.2 02:02:34 17° ENE 02:02:34 17° ENE 02:05:12 10° ENE visible
24 Nov 4.4 03:49:57 50° N 03:51:39 60° NE 04:00:21 10° SE visible
24 Nov 4.7 05:37:20 19° WNW 05:42:32 40° WSW 05:50:41 10° S visible
25 Nov 5.0 03:05:59 42° NE 03:05:59 42° NE 03:13:28 10° ESE visible
25 Nov 4.2 04:53:23 37° WNW 04:56:33 59° WSW 05:05:22 10° SSE visible
25 Nov 5.1 18:44:46 10° S 18:45:05 12° SSE 18:45:05 12° SSE visible
26 Nov 5.8 02:22:07 24° ENE 02:22:07 24° ENE 02:26:12 10° E visible
26 Nov 3.9 04:09:31 72° NW 04:10:30 84° SW 04:19:31 10° SSE visible
26 Nov 5.3 05:56:55 15° WNW 06:00:50 21° WSW 06:07:02 10° SSW visible
26 Nov 4.9 18:00:38 10° SE 18:01:18 12° SE 18:01:18 12° SE visible
26 Nov 5.4 19:48:06 10° SW 19:48:42 14° SW 19:48:42 14° SW visible
27 Nov 6.6 01:38:19 11° E 01:38:19 11° E 01:38:36 10° E visible
27 Nov 4.5 03:25:44 60° E 03:25:44 60° E 03:33:13 10° SE visible
27 Nov 4.8 05:13:08 30° W 05:15:02 33° WSW 05:22:45 10° S visible
27 Nov 4.0 19:02:13 10° SSW 19:04:54 34° SSW 19:04:54 34° SSW visible
